Back to catalog

STARLINK-31415

AliveCommunicationsVLEO
NORAD 59419·PAYLOAD·🇺🇸 United States

Launched Apr 5, 2024 from Cape Canaveral Space Force Station

Loading…

Next Passes (next 24 hours)

TLE

FreshSource: CelesTrak SupGP

Epoch: Sep 14, 2026, 20:35 UTC

1 59419C 24064X   26257.85812500  .00035997  00000+0  13040-2 0  2574
2 59419  43.0042  68.2589 0001483 273.8414  23.6885 15.27556066    12

Track STARLINK-31415 in real time with AllMySat

Download on the App Store